Regional Weather Roundup
Issued by NWS

Home | Current Version | Previous Version | Graphics & Text | Print | Product List | Glossary On
Versions: 1 2 3 4 5 6 7 8 9 10 11 12 13 14 15 16 17 18 19 20 21 22 23 24 25 26 27 28 29 30 31 32 33 34 35 36 37 38 39 40 41 42 43 44 45 46 47 48 49 50
181
ASUS43 KIND 102159
RWRIN

WEATHER ROUNDUP FOR INDIANA
NATIONAL WEATHER SERVICE INDIANAPOLIS IN
500 PM EST SAT DEC 10 2016

NOTE: "FAIR" INDICATES FEW OR NO CLOUDS BELOW 12,000 FEET WITH NO
SIGNIFICANT WEATHER AND/OR OBSTRUCTIONS TO VISIBILITY.

* - STATION DOES NOT REPORT WEATHER SUCH AS PRECIPITATION OR FOG.

+ - STATION NOT QUALITY CONTROLLED BY THE NATIONAL WEATHER SERVICE.
    USE DATA WITH CAUTION...ESPECIALLY DEWPOINT AND RELATIVE
    HUMIDITY OBSERVATIONS.

INZ001>003-010>013-019-020-102300-
NORTHWEST INDIANA

CITY           SKY/WX    TMP DP  RH WIND       PRES   REMARKS
GARY /AIRPORT/ CLOUDY    27  16  63 SW5       30.43F WCI  21

$$

LMZ046-743>745-102300-
SOUTHERN LAKE MICHIGAN

STATION/POSITION TIME  TEMP    WIND        PRES    WAVE
                       AIR SEA DIR/SP/G            HT
                 (UTC) (F)     (DEG/KT/KT) (MB)    (FT)

$$

INZ004-005-014>016-021>024-102300-
NORTH CENTRAL INDIANA

CITY           SKY/WX    TMP DP  RH WIND       PRES   REMARKS
ELKHART        PTCLDY    25  12  58 SW5       30.42S WCI  19
GOSHEN         CLOUDY    25  11  55 SW7       30.42F WCI  17
SOUTH BEND     CLOUDY    23  13  65 S8        30.42F WCI  14

$$

INZ006>009-017-018-025>027-102300-
NORTHEAST INDIANA

CITY           SKY/WX    TMP DP  RH WIND       PRES   REMARKS
ANGOLA *+      MOCLDY    23  16  74 SW7       30.40S WCI  15
FORT WAYNE     CLOUDY    26  13  57 SW9       30.44F WCI  17
KENDALLVILLE + CLOUDY    24  14  66 SW5       30.42S WCI  18

$$

INZ028-029-035-036-043>045-051>053-102300-
WEST CENTRAL INDIANA

CITY           SKY/WX    TMP DP  RH WIND       PRES   REMARKS
CRAWFORDSVL +  CLOUDY    26  17  68 CALM      30.44F
GREENCASTLE +  CLOUDY    28  19  69 S3        30.45S
LAFAYETTE      CLOUDY    27  16  63 S5        30.44F WCI  22
TERRE HAUTE    CLOUDY    28  17  63 S7        30.46S WCI  21

$$

INZ030>032-037>040-046>048-054>057-064-065-102300-
CENTRAL INDIANA

CITY           SKY/WX    TMP DP  RH WIND       PRES   REMARKS
COLUMBUS       CLOUDY    28  19  69 SE5       30.47F WCI  23
GREENWOOD *+   MOCLDY    29  19  65 SW5       30.45F WCI  24
INDIANAPOLIS   MOCLDY    28  16  60 S5        30.44S WCI  23
-EAGLE CREEK   CLOUDY    29  15  56 SW5       30.44F WCI  24
KOKOMO +       CLOUDY    27  16  63 SW6       30.44F WCI  20
SHELBYVILLE    CLOUDY    29  17  61 S6        30.45S WCI  23

$$

INZ033-034-041-042-049-050-058-059-102300-
EAST CENTRAL INDIANA

CITY           SKY/WX    TMP DP  RH WIND       PRES   REMARKS
MUNCIE         CLOUDY    28  15  58 SW5       30.44F WCI  23

$$

INZ060-061-067>069-081>083-085>088-102300-
SOUTHWEST INDIANA

CITY           SKY/WX    TMP DP  RH WIND       PRES   REMARKS
EVANSVILLE     CLOUDY    33  15  47 SE3       30.48F
HUNTINGBURG *+ PTCLDY    34  18  51 E3        30.47F

$$

INZ062-063-066-070>080-084-089>092-102300-
SOUTH CENTRAL AND SOUTHEAST INDIANA

CITY           SKY/WX    TMP DP  RH WIND       PRES   REMARKS
BLOOMINGTON    CLOUDY    29  16  58 S5        30.44F WCI  24
MADISON *+     CLOUDY    30  18  59 S5        30.49S WCI  25
SEYMOUR +      CLOUDY    30  18  59 SW3       30.48F

$$





USA.gov is the U.S. government's official web portal to all federal, state and local government web resources and services.